Date String (YYYY-MM-DD hh:mm:ss) UTC,Instrument flags,absolute air pressure of the measurement (hPa),sample flow rate (lpm),inlet stack bypass flow (lpm),air temperature of the measurement (°C),ambient temperature measured by the external sensor (°C),aerosol sample conditioner tube jacket temperature (°C),OPC LED temperature (°C),internal box temperature (°C),relative humidity of the measurement (%),span deviation,mass concentration of particles derived from Lorenz-Mie calculation of OPC scattering (μg/m³),mass concentration of particles derived from Lorenz-Mie calculation of OPC scattering (μg/m³),mass concentration of particles derived from Lorenz-Mie calculation of OPC scattering (μg/m³)
DateTimeUTC,F1_M11,P_M11,Q1_M11,Q2_M11,T1_M11,T2_M11,T3_M11,T4_M11,T5_M11,U1_M11,ZSPAN_M11,X2_M11,X0_M11,X1_M11
2023-08-10 01:00:00,SystemResetWarning,0829.8,4.99,000.00,029.1,027.1,000.0,037.4,030.8,24.4,0000.5,0005.22,0015.42,0004.52
2023-08-10 01:01:00,SystemResetWarning,0829.7,5.00,000.00,029.1,025.3,000.0,037.3,030.5,24.5,0002.2,0005.23,0015.84,0004.51
2023-08-10 01:02:00,SystemResetWarning,0829.7,5.00,000.00,029.0,024.8,000.0,037.2,030.3,24.7,0001.3,0005.26,0015.00,0004.52
2023-08-10 01:03:00,SystemResetWarning,0829.7,5.02,000.00,028.9,025.1,000.0,037.2,030.3,24.7,0000.6,0005.26,0014.86,0004.52
2023-08-10 01:04:00,SystemResetWarning,0829.7,4.99,000.00,028.9,025.5,000.0,037.2,030.3,25.0,0000.5,0005.28,0015.13,0004.50
2023-08-10 01:05:00,SystemResetWarning,0829.7,5.00,000.00,028.9,026.0,000.0,037.3,030.4,25.1,0000.0,0005.30,0014.37,0004.49
2023-08-10 01:06:00,SystemResetWarning,0829.7,5.01,000.00,028.9,026.4,000.0,037.3,030.5,25.0,0000.0,0005.33,0014.70,0004.49
2023-08-10 01:07:00,SystemResetWarning,0829.7,5.00,000.00,028.9,026.9,000.0,037.3,030.6,25.3,0000.0,0005.38,0015.65,0004.49
2023-08-10 01:08:00,SystemResetWarning,0829.7,4.99,000.00,029.0,027.2,000.0,037.3,030.7,25.3,0000.0,0005.40,0015.26,0004.50
2023-08-10 01:09:00,SystemResetWarning,0829.8,5.00,000.00,029.0,027.5,000.0,037.4,030.8,25.1,0000.0,0005.39,0013.96,0004.51
2023-08-10 01:10:00,SystemResetWarning,0829.7,5.00,000.00,029.1,027.8,000.0,037.4,030.9,25.3,0000.0,0005.42,0014.06,0004.52
2023-08-10 01:11:00,SystemResetWarning,0829.8,5.00,000.00,029.1,027.9,000.0,037.4,030.9,25.0,0000.0,0005.44,0014.51,0004.52
2023-08-10 01:12:00,SystemResetWarning,0829.8,4.99,000.00,029.1,026.6,000.0,037.3,030.7,25.0,0000.0,0005.46,0014.69,0004.53
2023-08-10 01:13:00,SystemResetWarning,0829.7,5.00,000.00,029.0,025.0,000.0,037.2,030.4,24.9,0000.0,0005.48,0015.71,0004.53
2023-08-10 01:14:00,SystemResetWarning,0829.7,5.01,000.00,029.0,024.8,000.0,037.1,030.2,24.9,0000.0,0005.49,0015.52,0004.53
2023-08-10 01:15:00,SystemResetWarning,0829.8,5.01,000.00,028.9,025.1,000.0,037.2,030.1,25.2,0000.0,0005.50,0015.46,0004.55
2023-08-10 01:16:00,SystemResetWarning,0829.8,5.00,000.00,028.8,025.6,000.0,037.2,030.2,25.0,0000.0,0005.53,0015.90,0004.56
2023-08-10 01:17:00,SystemResetWarning,0829.8,5.00,000.00,028.9,026.1,000.0,037.2,030.4,24.8,0000.0,0005.53,0015.24,0004.56
2023-08-10 01:18:00,SystemResetWarning,0829.8,4.99,000.00,028.9,026.5,000.0,037.3,030.6,24.7,0000.0,0005.49,0015.36,0004.56
2023-08-10 01:19:00,SystemResetWarning,0829.8,5.00,000.00,028.9,026.9,000.0,037.3,030.7,24.5,0000.0,0005.46,0016.11,0004.55
2023-08-10 01:20:00,SystemResetWarning,0829.8,5.00,000.00,029.0,027.3,000.0,037.3,030.7,24.3,0000.0,0005.45,0015.90,0004.55
2023-08-10 01:21:00,SystemResetWarning,0829.8,5.01,000.00,029.0,027.6,000.0,037.4,030.8,24.3,0000.0,0005.46,0015.75,0004.55
2023-08-10 01:22:00,SystemResetWarning,0829.8,5.00,000.00,029.1,027.8,000.0,037.4,030.9,24.3,0000.0,0005.48,0016.21,0004.55
2023-08-10 01:23:00,SystemResetWarning,0829.8,5.00,000.00,029.1,028.0,000.0,037.4,030.9,24.2,0000.0,0005.51,0016.12,0004.55
2023-08-10 01:24:00,SystemResetWarning,0829.9,4.98,000.00,029.2,027.1,000.0,037.4,030.8,24.3,0000.0,0005.50,0014.96,0004.55
2023-08-10 01:25:00,SystemResetWarning,0829.8,5.00,000.00,029.1,025.3,000.0,037.2,030.5,24.4,0000.0,0005.50,0014.98,0004.55
2023-08-10 01:26:00,SystemResetWarning,0829.8,5.00,000.00,029.0,024.7,000.0,037.2,030.3,24.6,0000.0,0005.45,0014.96,0004.54
2023-08-10 01:27:00,SystemResetWarning,0829.9,5.01,000.00,028.9,025.0,000.0,037.2,030.2,24.8,0000.0,0005.42,0014.89,0004.55
2023-08-10 01:28:00,SystemResetWarning,0829.9,5.01,000.00,028.9,025.4,000.0,037.2,030.2,24.9,0000.0,0005.41,0014.90,0004.56
2023-08-10 01:29:00,SystemResetWarning,0829.9,5.00,000.00,028.9,025.9,000.0,037.3,030.3,25.0,0000.0,0005.41,0014.05,0004.57
2023-08-10 01:30:00,SystemResetWarning,0830.0,5.00,000.00,028.9,026.4,000.0,037.3,030.5,25.1,0000.0,0005.47,0013.59,0004.58
2023-08-10 01:31:00,SystemResetWarning,0830.0,5.00,000.00,028.9,026.8,000.0,037.3,030.6,25.1,0000.0,0005.48,0014.03,0004.59
2023-08-10 01:32:00,SystemResetWarning,0830.0,5.00,000.00,029.0,027.2,000.0,037.3,030.7,25.1,0000.0,0005.45,0014.31,0004.59
2023-08-10 01:33:00,SystemResetWarning,0830.0,4.99,000.00,029.0,027.5,000.0,037.4,030.8,25.0,0000.0,0005.43,0014.16,0004.59
2023-08-10 01:34:00,SystemResetWarning,0830.0,5.00,000.00,029.1,027.7,000.0,037.4,030.9,24.9,0000.0,0005.41,0013.58,0004.58
2023-08-10 01:35:00,SystemResetWarning,0830.0,5.01,000.00,029.1,027.9,000.0,037.4,030.9,24.7,0000.0,0005.41,0013.78,0004.57
2023-08-10 01:36:00,SystemResetWarning,0830.0,4.99,000.00,029.2,027.6,000.0,037.4,030.9,24.7,0000.0,0005.43,0014.02,0004.57
2023-08-10 01:37:00,SystemResetWarning,0830.0,4.99,000.00,029.1,026.0,000.0,037.3,030.7,24.8,0000.0,0005.47,0014.08,0004.56
2023-08-10 01:38:00,SystemResetWarning,0830.0,5.01,000.00,029.1,025.7,000.0,037.2,030.5,24.8,0000.0,0005.45,0014.38,0004.56
2023-08-10 01:39:00,SystemResetWarning,0830.0,5.01,000.00,029.0,025.9,000.0,037.3,030.5,24.8,0000.0,0005.46,0014.11,0004.55
2023-08-10 01:40:00,SystemResetWarning,0830.0,4.99,000.00,029.0,026.3,000.0,037.3,030.5,24.9,0000.0,0005.43,0014.22,0004.53
2023-08-10 01:41:00,SystemResetWarning,0830.0,4.99,000.00,029.0,026.7,000.0,037.4,030.6,24.9,0000.0,0005.38,0013.95,0004.53
2023-08-10 01:42:00,SystemResetWarning,0830.0,5.00,000.00,029.1,027.0,000.0,037.4,030.7,24.9,0000.0,0005.35,0013.98,0004.51
2023-08-10 01:43:00,SystemResetWarning,0830.1,5.00,000.00,029.1,027.3,000.0,037.4,030.8,24.9,0000.0,0005.37,0014.79,0004.51
2023-08-10 01:44:00,SystemResetWarning,0830.0,5.01,000.00,029.2,027.6,000.0,037.5,030.9,24.8,0000.0,0005.36,0014.23,0004.51
2023-08-10 01:45:00,SystemResetWarning,0830.0,4.99,000.00,029.2,027.8,000.0,037.5,031.0,24.7,0000.0,0005.33,0014.01,0004.50
2023-08-10 01:46:00,SystemResetWarning,0830.0,4.99,000.00,029.2,026.8,000.0,037.4,030.8,24.6,0000.0,0005.29,0013.78,0004.51
2023-08-10 01:47:00,SystemResetWarning,0830.0,5.00,000.00,029.2,025.7,000.0,037.3,030.6,24.7,0000.0,0005.30,0014.16,0004.50
2023-08-10 01:48:00,SystemResetWarning,0830.0,5.01,000.00,029.1,025.7,000.0,037.3,030.6,24.8,0000.0,0005.27,0014.59,0004.49
2023-08-10 01:49:00,SystemResetWarning,0830.0,5.01,000.00,029.1,026.0,000.0,037.3,030.5,24.8,0000.0,0005.28,0013.79,0004.49
2023-08-10 01:50:00,SystemResetWarning,0830.0,5.00,000.00,029.1,026.4,000.0,037.4,030.6,24.7,0000.0,0005.28,0014.37,0004.49
2023-08-10 01:51:00,SystemResetWarning,0830.0,5.00,000.00,029.1,026.8,000.0,037.4,030.7,24.6,0000.0,0005.25,0015.21,0004.50
2023-08-10 01:52:00,SystemResetWarning,0830.0,5.00,000.00,029.1,027.2,000.0,037.5,030.8,24.5,0000.0,0005.28,0014.78,0004.51
2023-08-10 01:53:00,SystemResetWarning,0830.0,5.01,000.00,029.2,027.5,000.0,037.5,030.9,24.3,0000.0,0005.30,0014.49,0004.51
2023-08-10 01:54:00,SystemResetWarning,0830.0,5.00,000.00,029.2,027.8,000.0,037.5,031.0,24.3,-000.1,0005.28,0013.66,0004.50
2023-08-10 01:55:00,SystemResetWarning,0830.0,5.00,000.00,029.3,027.7,000.0,037.5,031.0,24.2,0000.0,0005.29,0013.62,0004.51
2023-08-10 01:56:00,SystemResetWarning,0830.0,4.99,000.00,029.3,026.1,000.0,037.4,030.8,24.2,0000.0,0005.32,0013.87,0004.50
2023-08-10 01:57:00,SystemResetWarning,0830.0,5.01,000.00,029.2,025.6,000.0,037.3,030.7,24.1,0000.0,0005.36,0015.02,0004.51
2023-08-10 01:58:00,SystemResetWarning,0830.0,5.02,000.00,029.1,025.8,000.0,037.4,030.5,24.2,0000.0,0005.34,0014.46,0004.52
2023-08-10 01:59:00,SystemResetWarning,0830.0,5.00,000.00,029.1,026.1,000.0,037.4,030.5,24.2,0000.0,0005.36,0014.46,0004.53
